AirNav  
 
 894 users online  

5CL9 Table Mountain Field Airport
Auberry, California, USA

GOING TO AUBERRY?


FAA INFORMATION EFFECTIVE 01 FEBRUARY 2018

Location

FAA Identifier: 5CL9
Lat/Long: 37-08-28.8000N / 119-30-28.5000W
37-08.480000N / 119-30.475000W
37.1413333 / -119.5079167
(estimated)
Elevation: 1280 ft. / 390 m (estimated)
Variation: 15E (1990)
From city: 8 miles N of AUBERRY, CA
Time zone: UTC -8 (UTC -7 during Daylight Saving Time)
Zip code: 93602

Airport Operations

Airport use: Private use. Permission required prior to landing
Activation date: 05/1994
Control tower: no
ARTCC: OAKLAND CENTER
FSS: RANCHO MURIETA FLIGHT SERVICE STATION
Attendance: UNATNDD
Wind indicator: yes
Segmented circle: no

Nearby radio navigation aids

VOR radial/distance  VOR name  Freq  Var
FRAr045/4.7FRIANT VORTAC115.6017E
CZQr029/21.3CLOVIS VORTAC112.9015E

Airport Services

Runway Information

Runway 15/33

Dimensions: 2000 x 50 ft. / 610 x 15 m
Surface: dirt
Operational restrictions: LANDING ONLY ON RY 15.
RUNWAY 15  RUNWAY 33
Traffic pattern: leftleft
Obstructions: none1000 ft. hill, 100 ft. from runway

Airport Ownership and Management from official FAA records

Ownership: Privately-owned
Owner: TABLE MOUNTAIN RANCHERIA
23736 SKY HARBOUR ROAD
FRIANT, CA 93626
Phone 559-822-2587
Manager: ANGELA KARST
23736 SKY HARBOUR ROAD
FRIANT, CA 93626
Phone 559-822-2597

Airport Operational Statistics

Aircraft based on the field: 1
Single engine airplanes: 1
    

Instrument Procedures

There are no published instrument procedures at 5CL9.

Some nearby airports with instrument procedures:

KFAT - Fresno Yosemite International Airport (24 nm SW)
KFCH - Fresno Chandler Executive Airport (29 nm SW)
KMAE - Madera Municipal Airport (30 nm W)
KMPI - Mariposa-Yosemite Airport (34 nm NW)
KMMH - Mammoth Yosemite Airport (43 nm NE)
 
Loc | Ops | Rwys | IFR | FBO | Links
Com | Nav | Svcs | Stats | Notes

AirNav Hotels Sweepstakes
 
Area around 5CL9 (Table Mountain Field Airport)
 
Road maps at: MapQuest Bing Google
 
Aerial photo
No photo
 
Sectional chart

 
Airport distance calculator
Flying to Table Mountain Field Airport? Find the distance to fly.

From to 5CL9

Sunrise and sunset
Times for 19-Feb-2018
 Local
(UTC-8)
 Zulu
(UTC)
Morning civil twilight06:1714:17
Sunrise06:4314:43
Sunset17:4101:41
Evening civil twilight18:0702:07

Current date and time
Zulu (UTC)  19-Feb-2018 13:30:47
Local (UTC-8)  19-Feb-2018 05:30:47
 
METAR
KFAT 
24nm SW 
191253Z 28003KT 10SM CLR 04/M02 A2994 RMK AO2 SLP139 T00391017
KFCH 
29nm SW 
191315Z AUTO RMK A01
KMAE 
31nm W 
191253Z AUTO 00000KT 10SM CLR 01/M01 A2994 RMK AO2 SLP139 T00111011 $
KMMH 
44nm NE 
191315Z AUTO 29011KT 10SM SCT050 OVC055 M10/M16 A2960 RMK AO2 T10961164
TAF
KFAT 
24nm SW 
191135Z 1912/2012 30006KT P6SM SCT060 SCT080 FM192000 31012KT P6SM SCT100 FM200600 32004KT P6SM SKC
NOTAMs
Click for the latest NOTAMs
NOTAMs are issued by the DoD/FAA and will open in a separate window not controlled by AirNav.

 

 
 

Would you like to see your business listed on this page?

 If your business provides an interesting product or service to pilots, flight crews, aircraft, or users of the Table Mountain Field Airport, you should consider listing it here.  To start the listing process, click on the button below
 
Add a business
 

Other Pages about Table Mountain Field Airport

Update a link
 
Copyright © AirNav, LLC. All rights reserved. Privacy Policy  Contact